Miscellaneous Local Product
Issued by NWS North Platte, NE

Home | Current Version | Previous Version | Text Only | Print | Product List | Glossary On
Versions: 1 2 3 4 5 6 7 8 9 10 11 12 13 14 15 16 17 18 19 20 21 22 23 24 25 26 27 28 29 30 31 32 33 34 35 36 37 38 39 40 41 42 43 44 45 46 47 48 49 50
000
AXUS43 KLBF 260410
MISLBF


WESTERN AND NORTH CENTRAL NEBRASKA HOURLY WEATHER ROUNDUP
NATIONAL WEATHER SERVICE NORTH PLATTE NE
1100 PM CDT MON JUL 25 2016

NOTE: "FAIR" INDICATES FEW OR NO CLOUDS BELOW 12,000 FEET WITH NO
SIGNIFICANT WEATHER AND/OR OBSTRUCTIONS TO VISIBILITY.

NOTE: STATIONS NOT REPORTING VARIABLES SUCH AS SKY/WEATHER OR
PRESSURE ARE PROVIDED BY RAWS AND APRS NETWORKS AND ARE NOT UNDER
NATIONAL WEATHER SERVICE QUALITY CONTROL.

...OBSERVATIONS IN AND NEAR THE EASTERN PANHANDLE OF NEBRASKA...

CITY           SKY/WX    TMP DP  RH WIND       PRES   REMARKS
PINE RIDGE     PTCLDY    81  61  50 S12G25    30.04R
CHADRON        CLEAR     82  59  45 S23G29    30.01S
ALLIANCE       CLEAR     72  62  71 SE12      30.11R
SIDNEY         CLEAR     72  61  68 S13       30.17R
CRESCENT LAKE    N/A     72  62  69 S7          N/A
$$

...OBSERVATIONS IN NORTHERN NEBRASKA AND FAR SOUTHERN SOUTH DAKOTA...

CITY           SKY/WX    TMP DP  RH WIND       PRES   REMARKS
WINNER         FAIR      78  53  41 S10       30.05R
VALENTINE      CLEAR     74  62  66 S7        30.07R
THEDFORD       CLEAR     73  65  76 S8        30.12R
AINSWORTH      CLEAR     74  63  68 SE10      30.09S
O`NEILL        CLEAR     73  63  70 SE8       30.11R
ORD            CLEAR     72  63  73 SE6       30.10R
BROKEN BOW     CLEAR     70  62  76 SE7       30.12R
VALENTINE NWR    N/A     72  64  74 S6          N/A
BUTTE            N/A     72  60  65 SE9         N/A
HALSEY           N/A     73  63  72 SE6         N/A
EWING            N/A     69  64  84 CALM        N/A
$$

...OBSERVATIONS IN SOUTHWEST NEBRASKA AND FAR NORTHEAST COLORADO...

CITY           SKY/WX    TMP DP  RH WIND       PRES   REMARKS
WRAY           FAIR      73  63  68 SE7       30.14
HOLYOKE        FAIR      70  63  78 W7        30.15R
IMPERIAL       CLEAR     72  63  73 S7        30.13R
OGALLALA       CLEAR     75  63  66 SE7       30.12R
NORTH PLATTE   CLEAR     70  67  90 SE7       30.12R
MCCOOK         CLEAR     74  63  68 SE9       30.12R
LEXINGTON      CLEAR     75  65  72 SE8       30.13R
STAPLETON        N/A     72  67  84 CALM        N/A
GOTHENBURG       N/A     75  64  68 SE3         N/A
CALLAWAY         N/A     71  67  88 SE8         N/A
$$

...OBSERVATIONS IN CENTRAL LINCOLN COUNTY AREA...

CITY           SKY/WX    TMP DP  RH WIND       PRES   REMARKS
N.P. AIRPORT   CLEAR     70  67  90 SE7       30.12R
N.P. DOWNTOWN    N/A     75  67  77 CALM        N/A
N.P. SOUTHEAST   N/A     74  67  77 SE3         N/A
N.P. HILLCREST   N/A     73  67  83 SE10        N/A
$$

...SOME OBSERVATIONS FROM AROUND THE REGION...

CITY           SKY/WX    TMP DP  RH WIND       PRES   REMARKS
DENVER         CLOUDY    77  43  29 S16       30.16R
LARAMIE        CLOUDY    65  31  28 E8        30.28R
CHEYENNE       CLEAR     70  53  54 SE7       30.21R
SCOTTSBLUFF    CLEAR     75  62  64 E12       30.09R
RAPID CITY     CLEAR     72  58  61 SE3       30.02R
BISMARCK       CLEAR     81  67  62 NE12      29.94R
PIERRE         CLOUDY    81  55  40 S12       29.98R
SIOUX FALLS    PTCLDY    74  63  68 S9        30.07R
OMAHA          CLEAR     77  67  71 SE5       30.09R
GRAND ISLAND   CLEAR     72  62  71 SE7       30.12R
KANSAS CITY    CLOUDY    79  66  64 E5        30.07S
WICHITA        PTCLDY    78  71  79 E10       30.04S
OKLAHOMA CITY  TSTM      77  74  90 CALM      30.00R
DALLAS         CLOUDY    81  72  74 SE7       29.94R
AMARILLO       CLOUDY    77  58  51 W12       30.16R
DODGE CITY     CLEAR     71  67  87 E5        30.11R
HAYS           CLEAR     72  61  68 E6        30.10R
GOODLAND       CLOUDY    72  65  78 S8        30.16R
$$




USA.gov is the U.S. government's official web portal to all federal, state and local government web resources and services.